Location: *
(46.1200°N, 11.2700°E)
Time: 05:32:58
(UTC+00:00)

Cosmos 2278 Rocket - Pass Details

Date: 02 March 2021
Orbit: 841 x 845 km, 71.0° (Epoch: 13 April)

Event Time Altitude Azimuth Distance (km) Brightness Sun altitude
Rises 20:39:12 0° 330° (NNW) 3,414 6.1 -36.7°
Reaches altitude 10° 20:41:41 10° 327° (NNW) 2,474 5.3 -37.1°
Enters shadow 20:44:38 31° 316° (NW) 1,443 3.8 -37.5°
